Weather History for Clarksville, TN

Change the Weather History Date:

Wednesday, February 13, 2013

  Actual Average Record
Temperature  
Mean Temperature 41 °F -  
Max Temperature 45 °F - 82 °F (1962)
Min Temperature 37 °F - 2 °F (1986)
Degree Days  
Heating Degree Days 24    
Month to date heating degree days 305  
Since 1 July heating degree days 2532  
Cooling Degree Days 0    
Month to date cooling degree days 0  
Moisture  
Dew Point 34 °F    
Average Humidity 85    
Maximum Humidity 92    
Minimum Humidity 58    
Precipitation  
Precipitation 0.12 in - 1.73 in (1989)
Month to date precipitation 0.66  
Sea Level Pressure  
Sea Level Pressure 29.88 in    
Wind  
Wind Speed 10 mph (NNW)    
Max Wind Speed 21 mph    
Max Gust Speed 25 mph    
Visibility 8 miles    
Events Rain    
T = Trace of Precipitation, MM = Missing Value Source: NWS Daily Summary

Daily Weather History Graph

Daily Weather History Graph

Search for Another Location

Airport:

Trip Planner

Search our weather history database for the weather conditions in past years. The results will help you decide how hot, cold, wet, or windy it might be!

Date:

Astronomy

Feb. 13, 2013 Rise Set
Actual Time 6:39 AM CST 5:28 PM CST
Civil Twilight 6:13 AM CST 5:55 PM CST
Nautical Twilight 5:42 AM CST 6:25 PM CST
Astronomical Twilight 5:12 AM CST 6:55 PM CST
Moon 8:16 AM CST (2/13) 9:22 PM CST (2/13)
Length of Visible Light 11h 41m
Length of Day
10h 48m
Waxing Crescent, 14% of the Moon is Illuminated
Feb 13
Waxing Crescent
Feb 17
First Quarter
Feb 25
Full
Mar 4
Last Quarter
Mar 11
New

Hourly Weather History & Observations

Time (CST) Temp. Windchill Dew Point Humidity Pressure Visibility Wind Dir Wind Speed Gust Speed Precip Events Conditions
12:52 AM 44.1 °F 39.5 °F 30.9 °F 60% 29.82 in 10.0 mi ENE 8.1 mph - 0.00 in Rain Light Rain
1:52 AM 43.0 °F 39.5 °F 33.1 °F 68% 29.79 in 10.0 mi NNE 5.8 mph - 0.00 in   Overcast
2:52 AM 41.0 °F 35.8 °F 35.1 °F 79% 29.78 in 8.0 mi North 8.1 mph - 0.02 in Rain Light Rain
3:52 AM 39.9 °F 35.1 °F 36.0 °F 86% 29.79 in 5.0 mi NNW 6.9 mph - 0.02 in Rain Light Rain
4:25 AM 39.2 °F 31.6 °F 35.6 °F 87% 29.79 in 8.0 mi NNW 12.7 mph - 0.02 in Rain Light Rain
4:52 AM 39.0 °F 30.6 °F 34.0 °F 82% 29.78 in 7.0 mi North 15.0 mph - 0.04 in Rain Light Rain
5:27 AM 39.2 °F 30.8 °F 35.6 °F 87% 29.78 in 6.0 mi North 15.0 mph - 0.01 in Rain Light Rain
5:36 AM 39.2 °F 30.8 °F 35.6 °F 87% 29.79 in 6.0 mi North 15.0 mph - 0.01 in Rain Light Rain
5:45 AM 37.4 °F 28.9 °F 35.6 °F 93% 29.78 in 5.0 mi NNE 13.8 mph 20.7 mph 0.02 in Rain Light Rain
5:52 AM 37.9 °F 30.0 °F 35.1 °F 89% 29.78 in 6.0 mi NNE 12.7 mph 20.7 mph 0.02 in Rain Light Rain
6:22 AM 37.4 °F 29.8 °F 35.6 °F 93% 29.80 in 6.0 mi NNE 11.5 mph - 0.01 in Rain Light Rain
6:52 AM 37.9 °F 30.9 °F 35.1 °F 89% 29.81 in 7.0 mi North 10.4 mph - 0.01 in Rain Light Rain
7:52 AM 37.9 °F 29.2 °F 35.1 °F 89% 29.83 in 4.0 mi North 15.0 mph - 0.00 in Rain Light Rain
8:35 AM 37.4 °F 28.9 °F 35.6 °F 93% 29.85 in 4.0 mi North 13.8 mph - 0.01 in Rain Light Rain
8:43 AM 37.4 °F 28.2 °F 33.8 °F 87% 29.86 in 4.0 mi North 16.1 mph - 0.01 in   Overcast
8:52 AM 37.9 °F 30.0 °F 35.1 °F 89% 29.87 in 4.0 mi North 12.7 mph - 0.01 in Rain Light Rain
9:09 AM 37.4 °F 30.8 °F 35.6 °F 93% 29.86 in 3.0 mi North 9.2 mph - 0.00 in   Overcast
9:52 AM 39.0 °F 31.8 °F 36.0 °F 89% 29.87 in 6.0 mi North 11.5 mph - 0.00 in   Overcast
10:52 AM 39.0 °F 31.8 °F 35.1 °F 86% 29.91 in 9.0 mi NNW 11.5 mph - 0.00 in   Overcast
11:52 AM 37.9 °F 29.6 °F 34.0 °F 86% 29.93 in 10.0 mi NNW 13.8 mph - 0.00 in   Overcast
12:52 PM 37.9 °F 30.5 °F 34.0 °F 86% 29.92 in 10.0 mi NNW 11.5 mph - N/A   Overcast
1:45 PM 39.2 °F 33.0 °F 33.8 °F 81% 29.91 in 10.0 mi NNW 9.2 mph - N/A   Overcast
1:52 PM 39.0 °F 34.8 °F 34.0 °F 82% 29.91 in 10.0 mi NNW 5.8 mph - N/A   Overcast
2:33 PM 39.2 °F 34.2 °F 33.8 °F 81% 29.91 in 10.0 mi NW 6.9 mph - N/A   Overcast
2:52 PM 41.0 °F 36.4 °F 34.0 °F 76% 29.92 in 10.0 mi WNW 6.9 mph - N/A   Overcast
3:52 PM 41.0 °F 39.0 °F 34.0 °F 76% 29.93 in 10.0 mi SW 3.5 mph - N/A   Mostly Cloudy
4:52 PM 42.1 °F 39.2 °F 34.0 °F 73% 29.93 in 10.0 mi South 4.6 mph - N/A   Overcast
5:50 PM 39.2 °F 37.0 °F 33.8 °F 81% 29.94 in 10.0 mi SW 3.5 mph - N/A   Scattered Clouds
5:52 PM 39.9 °F 37.8 °F 33.1 °F 77% 29.95 in 10.0 mi SW 3.5 mph - N/A   Scattered Clouds
6:52 PM 37.9 °F 35.5 °F 33.1 °F 83% 29.96 in 10.0 mi SSW 3.5 mph - N/A   Mostly Cloudy
7:52 PM 37.0 °F 33.3 °F 33.1 °F 86% 29.97 in 10.0 mi South 4.6 mph - N/A   Mostly Cloudy
8:11 PM 35.6 °F 30.7 °F 32.0 °F 87% 29.96 in 10.0 mi South 5.8 mph - N/A   Scattered Clouds
8:52 PM 36.0 °F 31.1 °F 32.0 °F 86% 29.99 in 10.0 mi South 5.8 mph - N/A   Clear
9:52 PM 35.1 °F 31.0 °F 33.1 °F 92% 29.99 in 10.0 mi South 4.6 mph - N/A   Clear
10:52 PM 35.1 °F 31.0 °F 33.1 °F 92% 30.00 in 10.0 mi South 4.6 mph - N/A   Clear
11:52 PM 33.1 °F 27.7 °F 32.0 °F 96% 30.00 in 8.0 mi South 5.8 mph - N/A   Clear